Total_Precipitation_Accumulation
0.50 0.50 0.54 0.57 0.60 0.68 0.79 0.87 0.89 0.88 0.86 0.91 1.01 1.07 1.05 1.03 1.01 0.99 0.94 0.91 0.89 0.86 0.84 0.86 0.87 0.87 0.92 0.94 0.98 1.06 1.17 1.30 1.35 1.10 0.92 0.90 0.94 0.92 0.90 0.80 0.73 0.73 0.72
0.39 0.38 0.40 0.41 0.42 0.48 0.57 0.65 0.70 0.75 0.78 0.78 0.77 0.80 0.86 0.89 0.90 0.91 0.89 0.84 0.81 0.79 0.79 0.80 0.81 0.83 0.89 0.93 1.00 1.07 1.13 1.19 1.25 1.15 0.96 0.86 0.80 0.73 0.68 0.63 0.57 0.54 0.52
0.29 0.29 0.30 0.32 0.30 0.32 0.36 0.41 0.46 0.52 0.61 0.66 0.65 0.64 0.64 0.64 0.66 0.71 0.76 0.79 0.77 0.75 0.77 0.81 0.83 0.86 0.90 0.93 0.99 1.05 1.06 1.04 1.02 0.96 0.81 0.68 0.61 0.57 0.56 0.52 0.46 0.44 0.41
0.24 0.24 0.24 0.25 0.26 0.26 0.26 0.28 0.30 0.32 0.36 0.39 0.43 0.47 0.50 0.51 0.51 0.52 0.57 0.65 0.71 0.75 0.77 0.80 0.86 0.94 1.01 1.05 1.05 1.04 0.99 0.95 0.89 0.84 0.76 0.66 0.57 0.49 0.49 0.49 0.46 0.40 0.37
0.22 0.19 0.18 0.19 0.20 0.22 0.20 0.19 0.17 0.15 0.16 0.20 0.25 0.30 0.34 0.38 0.43 0.46 0.48 0.52 0.57 0.65 0.74 0.81 0.87 0.97 1.00 0.95 0.86 0.80 0.75 0.73 0.73 0.73 0.69 0.59 0.51 0.46 0.44 0.40 0.39 0.38 0.36
0.19 0.17 0.17 0.17 0.19 0.19 0.17 0.14 0.12 0.11 0.12 0.14 0.17 0.22 0.27 0.31 0.43 0.44 0.41 0.44 0.53 0.59 0.64 0.69 0.76 0.80 0.74 0.70 0.65 0.60 0.61 0.64 0.65 0.58 0.51 0.44 0.36 0.32 0.31 0.35 0.39 0.45 0.45
0.27 0.23 0.20 0.20 0.20 0.20 0.20 0.19 0.18 0.18 0.18 0.19 0.20 0.22 0.26 0.34 0.45 0.46 0.51 0.49 0.53 0.57 0.57 0.55 0.52 0.52 0.53 0.45 0.46 0.46 0.46 0.48 0.45 0.40 0.38 0.33 0.29 0.27 0.32 0.39 0.40 0.40 0.33
0.39 0.37 0.34 0.34 0.36 0.39 0.40 0.39 0.38 0.37 0.36 0.36 0.36 0.36 0.39 0.48 0.54 0.51 0.50 0.46 0.46 0.45 0.41 0.36 0.34 0.33 0.34 0.36 0.38 0.40 0.34 0.29 0.27 0.25 0.23 0.22 0.24 0.27 0.34 0.40 0.41 0.40 0.34
0.57 0.61 0.60 0.59 0.62 0.66 0.71 0.72 0.68 0.65 0.63 0.62 0.62 0.60 0.57 0.55 0.51 0.41 0.35 0.31 0.30 0.28 0.25 0.23 0.22 0.21 0.25 0.30 0.31 0.31 0.29 0.27 0.26 0.27 0.27 0.26 0.28 0.31 0.33 0.37 0.44 0.53 0.49
0.71 0.76 0.73 0.72 0.73 0.73 0.74 0.74 0.70 0.64 0.61 0.58 0.56 0.51 0.45 0.38 0.32 0.23 0.18 0.15 0.15 0.14 0.14 0.14 0.17 0.18 0.24 0.31 0.28 0.27 0.27 0.25 0.26 0.28 0.28 0.26 0.25 0.26 0.30 0.28 0.32 0.50 0.52
0.70 0.66 0.60 0.56 0.51 0.48 0.46 0.43 0.41 0.37 0.34 0.31 0.28 0.24 0.19 0.15 0.12 0.11 0.10 0.08 0.08 0.11 0.13 0.13 0.15 0.21 0.26 0.30 0.31 0.27 0.25 0.27 0.27 0.27 0.28 0.28 0.29 0.29 0.29 0.26 0.26 0.41 0.55
0.43 0.36 0.30 0.28 0.25 0.23 0.21 0.20 0.18 0.16 0.14 0.12 0.09 0.07 0.06 0.05 0.06 0.08 0.10 0.11 0.12 0.12 0.12 0.12 0.14 0.23 0.27 0.29 0.28 0.28 0.31 0.32 0.27 0.27 0.28 0.29 0.28 0.28 0.28 0.26 0.26 0.27 0.33
0.12 0.10 0.08 0.08 0.08 0.07 0.07 0.06 0.05 0.04 0.03 0.03 0.03 0.03 0.03 0.04 0.06 0.09 0.11 0.14 0.16 0.15 0.13 0.17 0.21 0.25 0.25 0.24 0.26 0.28 0.30 0.28 0.26 0.27 0.26 0.23 0.21 0.23 0.26 0.29 0.32 0.33 0.32
0.03 0.03 0.03 0.03 0.03 0.04 0.04 0.04 0.04 0.04 0.04 0.04 0.05 0.05 0.05 0.05 0.06 0.09 0.11 0.14 0.18 0.18 0.16 0.17 0.21 0.23 0.25 0.25 0.25 0.26 0.26 0.26 0.27 0.28 0.25 0.24 0.24 0.27 0.30 0.31 0.35 0.38 0.41
0.04 0.05 0.05 0.05 0.05 0.05 0.06 0.07 0.08 0.07 0.08 0.09 0.09 0.10 0.11 0.10 0.09 0.15 0.19 0.20 0.22 0.23 0.25 0.24 0.24 0.23 0.23 0.22 0.22 0.22 0.23 0.26 0.28 0.28 0.30 0.31 0.31 0.31 0.31 0.31 0.35 0.41 0.44
0.07 0.07 0.09 0.10 0.10 0.10 0.11 0.11 0.13 0.13 0.14 0.15 0.15 0.15 0.14 0.15 0.17 0.21 0.24 0.25 0.28 0.33 0.36 0.29 0.23 0.21 0.20 0.20 0.20 0.21 0.22 0.24 0.26 0.30 0.34 0.35 0.37 0.37 0.37 0.35 0.37 0.43 0.43
0.13 0.14 0.16 0.16 0.17 0.17 0.17 0.17 0.17 0.17 0.20 0.20 0.18 0.18 0.18 0.19 0.22 0.24 0.25 0.27 0.30 0.35 0.34 0.24 0.18 0.17 0.19 0.20 0.22 0.25 0.26 0.25 0.29 0.36 0.40 0.41 0.44 0.44 0.44 0.43 0.42 0.45 0.45
0.11 0.14 0.16 0.15 0.16 0.18 0.19 0.20 0.20 0.20 0.19 0.17 0.17 0.20 0.21 0.23 0.25 0.26 0.30 0.35 0.34 0.31 0.25 0.19 0.17 0.18 0.20 0.24 0.27 0.30 0.32 0.33 0.36 0.39 0.41 0.43 0.48 0.53 0.52 0.47 0.46 0.49 0.51
0.12 0.13 0.16 0.18 0.19 0.20 0.21 0.21 0.20 0.20 0.19 0.17 0.17 0.20 0.26 0.30 0.32 0.31 0.34 0.33 0.27 0.20 0.17 0.16 0.18 0.21 0.25 0.29 0.32 0.35 0.38 0.40 0.39 0.42 0.42 0.42 0.48 0.58 0.55 0.46 0.48 0.49 0.55
0.13 0.19 0.23 0.23 0.23 0.23 0.23 0.23 0.23 0.22 0.22 0.20 0.19 0.21 0.30 0.40 0.36 0.29 0.27 0.25 0.22 0.19 0.18 0.20 0.22 0.25 0.30 0.34 0.38 0.40 0.42 0.41 0.42 0.44 0.43 0.44 0.48 0.57 0.58 0.51 0.51 0.55 0.53
0.14 0.18 0.25 0.24 0.21 0.21 0.24 0.25 0.26 0.27 0.25 0.23 0.21 0.26 0.42 0.47 0.37 0.28 0.25 0.24 0.24 0.24 0.25 0.28 0.29 0.31 0.35 0.38 0.41 0.41 0.41 0.39 0.39 0.43 0.45 0.47 0.52 0.56 0.53 0.54 0.54 0.56 0.62
0.15 0.16 0.18 0.20 0.21 0.23 0.27 0.29 0.31 0.29 0.26 0.24 0.22 0.27 0.41 0.40 0.32 0.28 0.27 0.25 0.25 0.27 0.31 0.37 0.37 0.34 0.39 0.45 0.50 0.50 0.45 0.38 0.37 0.44 0.48 0.49 0.53 0.54 0.55 0.59 0.62 0.69 0.71
0.17 0.18 0.19 0.19 0.21 0.25 0.29 0.26 0.26 0.27 0.26 0.25 0.25 0.26 0.31 0.32 0.28 0.27 0.27 0.28 0.30 0.33 0.35 0.40 0.40 0.36 0.35 0.43 0.50 0.60 0.60 0.48 0.44 0.53 0.64 0.65 0.65 0.67 0.73 0.76 0.72 0.68 0.60
0.17 0.19 0.20 0.21 0.22 0.24 0.24 0.23 0.23 0.25 0.27 0.27 0.27 0.26 0.27 0.27 0.27 0.27 0.28 0.31 0.34 0.35 0.37 0.40 0.39 0.37 0.37 0.43 0.47 0.50 0.55 0.62 0.77 0.86 0.98 1.15 1.07 0.92 0.85 0.78 0.67 0.61 0.59
0.19 0.21 0.23 0.24 0.25 0.26 0.27 0.26 0.26 0.26 0.28 0.28 0.28 0.27 0.26 0.27 0.27 0.27 0.29 0.32 0.35 0.35 0.35 0.36 0.38 0.40 0.41 0.43 0.44 0.46 0.51 0.63 0.86 1.16 1.26 1.19 1.01 0.85 0.82 0.76 0.66 0.62 0.62
0.21 0.23 0.25 0.26 0.27 0.27 0.28 0.28 0.27 0.27 0.28 0.28 0.29 0.29 0.29 0.29 0.28 0.29 0.30 0.32 0.34 0.33 0.32 0.33 0.34 0.38 0.42 0.44 0.42 0.44 0.53 0.60 0.66 0.78 0.99 1.05 0.95 0.82 0.81 0.84 0.74 0.69 0.68